This is the latest recevied weather packets stored in our database for station/object VE8SKI. If no packets are shown the sender has not sent any weather packets the latest 10 day(s).
| Time | Temp. | Humidity | Pressure | Rain* | Wind** | Luminosity | Snow |
|---|---|---|---|---|---|---|---|
| 1778052816 | 3.33° C | 58% | 1017.5 hPa | 0 mm | 2.68 m/s, 212° | - | - |
| 1778052516 | 3.33° C | 58% | 1017.5 hPa | 0 mm | 2.24 m/s, 195° | - | - |
| 1778052214 | 3.33° C | 59% | 1017.5 hPa | 0 mm | 2.68 m/s, 212° | - | - |
| 1778051914 | 3.33° C | 59% | 1017.6 hPa | 0 mm | 2.68 m/s, 248° | - | - |
| 1778051615 | 3.33° C | 59% | 1017.6 hPa | 0 mm | 1.79 m/s, 190° | - | - |
| 1778051315 | 3.33° C | 59% | 1017.6 hPa | 0 mm | 3.58 m/s, 211° | - | - |
| 1778051016 | 2.78° C | 60% | 1017.7 hPa | 0 mm | 2.68 m/s, 166° | - | - |
| 1778050716 | 2.78° C | 60% | 1017.7 hPa | 0 mm | 2.24 m/s, 235° | - | - |
| 1778050414 | 2.78° C | 60% | 1017.7 hPa | 0 mm | 2.24 m/s, 208° | - | - |
| 1778050114 | 2.78° C | 61% | 1017.7 hPa | 0 mm | 1.79 m/s, 193° | - | - |
| 1778049815 | 2.78° C | 61% | 1017.8 hPa | 0 mm | 2.68 m/s, 235° | - | - |
| 1778049515 | 2.78° C | 62% | 1017.8 hPa | 0 mm | 2.68 m/s, 224° | - | - |
| 1778049215 | 2.78° C | 62% | 1017.8 hPa | 0 mm | 0 m/s | - | - |
| 1778048916 | 2.78° C | 62% | 1017.9 hPa | 0 mm | 0 m/s | - | - |
| 1778048613 | 2.78° C | 62% | 1017.9 hPa | 0 mm | 0 m/s | - | - |
| 1778048314 | 2.78° C | 62% | 1017.9 hPa | 0 mm | 0 m/s | - | - |
| 1778048014 | 2.78° C | 62% | 1017.9 hPa | 0 mm | 2.68 m/s, 187° | - | - |
| 1778047715 | 2.78° C | 62% | 1018 hPa | 0 mm | 3.13 m/s, 193° | - | - |
| 1778047415 | 3.33° C | 63% | 1018 hPa | 0 mm | 1.79 m/s, 197° | - | - |
| 1778047115 | 2.78° C | 63% | 1018 hPa | 0 mm | 2.68 m/s, 246° | - | - |
| 1778046813 | 3.33° C | 63% | 1018 hPa | 0 mm | 1.79 m/s, 194° | - | - |
| 1778046514 | 3.33° C | 63% | 1018 hPa | 0 mm | 1.79 m/s, 301° | - | - |
| 1778046214 | 3.33° C | 63% | 1018 hPa | 0 mm | 2.68 m/s, 152° | - | - |
| 1778045914 | 3.33° C | 63% | 1018 hPa | 0 mm | 2.24 m/s, 233° | - | - |
| 1778045615 | 3.33° C | 62% | 1017.9 hPa | 0 mm | 2.68 m/s, 231° | - | - |
* Rain latest hour (hover to see other rain measurements)
** Current wind speed in m/s (hover to see current wind gust speed)